Content
SEND FEEDBACK

Daily
Averages
Monthly
Summary
French Polynesia

PAPEETE, FRENCH POLYNESIA


Home > Oceania > French Polynesia
Elevation: 7 feet     Latitude: 17 33S     Longitude: 149 36W

WEATHER
 
SELECT A DAY
Number of Records: 214,168;   Date Range: 6/30/96 - 10/20/14
 
SHARE

PRINT THIS DATA

[ ← Previous Day ]
WEATHER ALMANAC - JANUARY 12, 2014
[ Next Day → ]
[ °C ]   °F
Weather ElementAverageHighLow
Temperature79.1 °F82.4 °F (2:00 pm)75 °F (11:00 pm)
Dewpoint68.4 °F72 °F (8:00 am)64.4 °F (4:30 am)
Humidity68.8 %83 % (10:00 pm)50 % (8:00 pm)
Barometer29.89 in29.95 in (9:30 am)29.83 in (2:30 am)
Wind Speed9.2 mph18.4 mph (8:00 am)
Wind Gust33.4 mph (8:00 am)
Weather ElementAverage
Visibility7.1 mi
Wind DirectionESE (97.5 °)

Weather ElementTotal
Precipitation---
Cooling Degree Days13.7 (Base 65)
Growing Degree Days28.7 (Base 50)
Averaged from 55 records on January 12, 2014
WEATHER CONDITIONS BREAKOUT
WIND DIRECTION BREAKOUT
WEATHER BY HOUR - JANUARY 12, 2014
[ °C ]   °F
Local TimeTemperatureDewpointHumidityBarometerVisibilityWind DirectionWind SpeedGust SpeedPrecipitationEventsConditions
12:30 AM78.8 °F66.2 °F65 %29.86 in6.2 miEast (80°)9.2 mphScattered Clouds
1:00 AM78.8 °F71.6 °F78 %29.86 in6.2 miEast (80°)12.7 mph31.1 mphScattered Clouds
1:30 AM80.6 °F66.2 °F61 %29.86 in6.2 miEast (80°)15.0 mphScattered Clouds
2:00 AM79.0 °F67.0 °F57 %29.86 in9.0 miENE (70°)9.2 mphScattered Clouds
2:00 AM78.8 °F66.2 °F65 %29.86 in6.2 miENE (70°)9.2 mphScattered Clouds
2:30 AM78.8 °F66.2 °F65 %29.83 in6.2 miENE (60°)5.8 mphPartly Cloudy
3:00 AM78.8 °F68.0 °F69 %29.83 in6.2 miSE (130°)3.5 mphPartly Cloudy
3:30 AM78.8 °F69.8 °F74 %29.83 in6.2 miVariable2.3 mph
4:00 AM78.8 °F69.8 °F74 %29.86 in6.2 miESE (110°)6.9 mphMostly Cloudy
4:30 AM78.8 °F64.4 °F61 %29.86 in6.2 miEast (100°)9.2 mph
5:00 AM80.0 °F67.0 °F56 %29.88 in37.0 miENE (70°)11.5 mphClear
5:00 AM80.6 °F66.2 °F61 %29.86 in6.2 miENE (70°)11.5 mph
5:30 AM77.0 °F68.0 °F74 %29.89 in6.2 miENE (60°)16.1 mphOvercast
6:00 AM77.0 °F68.0 °F74 %29.89 in6.2 miENE (70°)4.6 mphRainLight Rain
6:30 AM75.2 °F68.0 °F78 %29.89 in6.2 miENE (70°)3.5 mphMostly Cloudy
7:00 AM77.0 °F68.0 °F74 %29.92 in6.2 miENE (60°)9.2 mphRainLight Rain Showers
7:30 AM75.2 °F68.0 °F78 %29.92 in6.2 miENE (60°)6.9 mphRainLight Rain
8:00 AM78.0 °F72.0 °F77 %29.93 in5.0 miNE (40°)18.4 mphRainLight Rain
8:00 AM78.8 °F71.6 °F78 %29.92 in5.0 miNE (40°)18.4 mph33.4 mphRainRain
8:30 AM78.8 °F71.6 °F78 %29.92 in6.2 miENE (60°)15.0 mphScattered Clouds
9:00 AM80.6 °F71.6 °F74 %29.92 in6.2 miNE (40°)12.7 mphScattered Clouds
9:30 AM80.6 °F71.6 °F74 %29.95 in6.2 miENE (60°)16.1 mphMostly Cloudy
10:00 AM78.8 °F66.2 °F65 %29.95 in5.0 miENE (70°)16.1 mph29.9 mphRainLight Rain
10:30 AM78.8 °F68.0 °F69 %29.92 in5.0 miNE (50°)15.0 mphRainLight Rain
11:00 AM76.0 °F67.0 °F68 %29.93 in5.0 miENE (60°)12.7 mphRainLight Rain
11:00 AM75.2 °F68.0 °F78 %29.92 in5.0 miENE (60°)12.7 mphRainLight Rain
11:30 AM77.0 °F68.0 °F74 %29.92 in5.0 miENE (60°)18.4 mphRainLight Rain
12:00 PM77.0 °F68.0 °F74 %29.92 in6.2 miEast (90°)9.2 mphRainLight Rain
12:30 PM78.8 °F68.0 °F69 %29.89 in6.2 miEast (90°)8.1 mphMostly Cloudy
1:00 PM80.6 °F68.0 °F65 %29.89 in6.2 miENE (70°)12.7 mphMostly Cloudy
2:00 PM82.0 °F68.0 °F54 %29.89 in12.0 miSouth (180°)5.8 mphPartly Cloudy
2:00 PM82.4 °F68.0 °F62 %29.89 in6.2 miSouth (180°)5.8 mphMostly Cloudy
2:30 PM82.4 °F69.8 °F66 %29.86 in6.2 miSSW (200°)12.7 mphMostly Cloudy
3:00 PM82.4 °F69.8 °F66 %29.86 in6.2 miSSW (200°)10.4 mphMostly Cloudy
3:30 PM82.4 °F69.8 °F66 %29.83 in6.2 miSSW (210°)6.9 mphMostly Cloudy
4:00 PM82.4 °F68.0 °F62 %29.83 in6.2 miSouth (170°)5.8 mphMostly Cloudy
4:30 PM82.4 °F69.8 °F66 %29.86 in6.2 miSouth (190°)11.5 mphMostly Cloudy
5:00 PM81.0 °F69.0 °F59 %29.87 in12.0 miSouth (170°)4.6 mphRainLight Rain
5:00 PM80.6 °F69.8 °F70 %29.86 in6.2 miSouth (170°)4.6 mphRainLight Rain
5:30 PM80.6 °F69.8 °F70 %29.86 in6.2 miSSE (160°)5.8 mphMostly Cloudy
6:00 PM80.6 °F69.8 °F70 %29.89 in6.2 miSSE (150°)4.6 mphMostly Cloudy
6:15 PM80.6 °F69.8 °F70 %29.89 in6.2 miVariable3.5 mphMostly Cloudy
6:30 PM80.6 °F68.0 °F65 %29.89 in6.2 miESE (110°)4.6 mphMostly Cloudy
7:00 PM80.6 °F66.2 °F61 %29.89 in6.2 miESE (120°)6.9 mphMostly Cloudy
7:30 PM82.4 °F64.4 °F54 %29.89 in6.2 miEast (80°)18.4 mph31.1 mphMostly Cloudy
8:00 PM82.0 °F67.0 °F50 %29.90 in12.0 miEast (80°)9.2 mphPartly Cloudy
8:00 PM82.4 °F66.2 °F58 %29.89 in6.2 miEast (80°)9.2 mphMostly Cloudy
8:30 PM80.6 °F66.2 °F61 %29.92 in6.2 miENE (70°)13.8 mphMostly Cloudy
9:00 PM78.8 °F68.0 °F69 %29.92 in6.2 miEast (90°)5.8 mphRainLight Rain
9:30 PM77.0 °F68.0 °F74 %29.92 in5.6 miENE (70°)6.9 mphRainLight Rain
10:00 PM75.2 °F69.8 °F83 %29.92 in6.2 miESE (120°)4.6 mphRainLight Rain
10:30 PM75.2 °F69.8 °F83 %29.92 in6.2 miCalmRainLight Rain
11:00 PM75.0 °F70.0 °F79 %29.94 in12.0 miSouth (180°)3.5 mphRainLight Rain
11:00 PM75.2 °F69.8 °F83 %29.92 in6.2 miSouth (180°)3.5 mphOvercast
11:30 PM75.2 °F68.0 °F78 %29.92 in6.2 miSouth (170°)8.1 mphOvercast
Hourly data recorded from NTAA, located miles away from Papeete, French Polynesia







STORIES FROM OUR PARTNERS